Regional Weather Roundup
Issued by NWS Charleston, WV

Home | Current Version | Previous Version | Graphics & Text | Print | Product List | Glossary On
Versions: 1 2 3 4 5 6 7 8 9 10 11 12 13 14 15 16 17 18 19 20 21 22 23 24 25 26 27 28 29 30 31 32 33 34 35 36 37 38 39 40 41 42 43 44 45 46 47 48 49 50
000
ASUS41 KRLX 032010
RWRRLX
West Virginia Regional Weather Roundup
National Weather Service Charleston WV
400 PM EDT MON AUG 03 2015

Note: "fair" indicates few or no clouds below 12,000 feet with no
significant weather and/or obstructions to visibility.

WVZ003-032100-
Northern Panhandle of West Virginia

CITY           SKY/WX    TMP DP  RH WIND       PRES   REMARKS
WHEELING       LGT RAIN  74  66  76 SW5       29.85S
$$

WVZ009-032100-
Northwest West Virginia

CITY           SKY/WX    TMP DP  RH WIND       PRES   REMARKS
PARKERSBURG    SUNNY     87  61  41 S13G22    29.87F
$$

WVZ006-032100-
Western West Virginia

CITY           SKY/WX    TMP DP  RH WIND       PRES   REMARKS
HUNTINGTON     SUNNY     87  64  46 SW9G16    29.87F
$$

WVZ015-032100-
West Central West Virginia

CITY           SKY/WX    TMP DP  RH WIND       PRES   REMARKS
CHARLESTON     MOSUNNY   87  61  41 SW12G21   29.88F
$$

WVZ022-031-032100-
North Central West Virginia

CITY           SKY/WX    TMP DP  RH WIND       PRES   REMARKS
CLARKSBURG     MOSUNNY   85  60  42 SW13      29.87F
MORGANTOWN     PTSUNNY   85  58  39 W3        29.88F
$$

WVZ025-035-042-045-032100-
Southern West Virginia

CITY           SKY/WX    TMP DP  RH WIND       PRES   REMARKS
BECKLEY        SUNNY     82  58  43 SW13      30.00F
LOGAN            N/A     84  64  51 SW8       29.91F
BLUEFIELD      SUNNY     84  59  42 W9G17     30.03F
LEWISBURG      SUNNY     85  53  33 W8        29.98S
$$

WVZ047-032100-
Northern Mountains of West Virginia

CITY           SKY/WX    TMP DP  RH WIND       PRES   REMARKS
ELKINS         MOSUNNY   84  53  34 W9        29.93F
$$

WVZ052-032100-
Eastern Panhandle of West Virginia

CITY           SKY/WX    TMP DP  RH WIND       PRES   REMARKS
MARTINSBURG    PTSUNNY   87  58  37 SW9       29.82F
PETERSBURG       N/A    N/A N/A N/A MISG        N/A
$$



USA.gov is the U.S. government's official web portal to all federal, state and local government web resources and services.